Location: Sternwarte Stuttgart
(48.7670°N, 9.1830°E)
Time: 09:30:58
(UTC+01:00)

ISS - All Passes

Search period start: 29 November 2014 00:00
Search period end: 09 December 2014 00:00
Orbit: 407 x 417 km, 51.6° (Epoch: 29 November)

Date Brightness Start Highest point End Pass type
(mag) Time Alt. Az. Time Alt. Az. Time Alt. Az.
29 Nov - 00:04:45 10° WSW 00:08:03 80° SSE 00:11:21 10° ENE night (unlit)
29 Nov - 01:41:38 10° W 01:44:51 49° N 01:48:04 10° ENE night (unlit)
29 Nov - 03:18:27 10° WNW 03:21:45 72° NNE 03:25:02 10° ESE night (unlit)
29 Nov - 04:55:17 10° W 04:58:13 29° SW 05:01:07 10° SSE visible
29 Nov - 21:41:15 10° SSE 21:42:10 11° SE 21:43:04 10° ESE night (unlit)
29 Nov - 23:14:59 10° SW 23:18:12 55° SSE 23:21:26 10° ENE night (unlit)
30 Nov - 00:51:39 10° W 00:54:53 54° N 00:58:08 10° ENE night (unlit)
30 Nov - 02:28:33 10° WNW 02:31:49 58° NNE 02:35:04 10° E night (unlit)
30 Nov - 04:05:16 10° WNW 04:08:26 45° SSW 04:11:36 10° SE night (unlit)
30 Nov - 22:25:20 10° SW 22:28:23 35° SSE 22:31:26 10° E night (unlit)
01 Dec - 00:01:38 10° W 00:04:55 64° NNW 00:08:11 10° ENE night (unlit)
01 Dec - 01:38:36 10° WNW 01:41:49 51° N 01:45:03 10° E night (unlit)
01 Dec - 03:15:17 10° WNW 03:18:34 68° SSW 03:21:50 10° ESE night (unlit)
01 Dec - 04:52:52 10° WSW 04:54:43 14° SW 04:56:35 10° S visible
01 Dec - 21:35:54 10° SSW 21:38:34 23° SE 21:41:15 10° E night (unlit)
01 Dec - 23:11:38 10° WSW 23:14:56 83° NNW 23:18:14 10° ENE night (unlit)
02 Dec - 00:48:34 10° WNW 00:51:47 48° N 00:55:00 10° ENE night (unlit)
02 Dec - 02:25:19 10° WNW 02:28:38 86° NNE 02:31:55 10° ESE night (unlit)
02 Dec - 04:02:20 10° W 04:04:58 22° SW 04:07:36 10° SSE night (unlit)
02 Dec - 20:46:50 10° S 20:48:47 15° SE 20:50:45 10° E night (unlit)
02 Dec - 22:21:41 10° WSW 22:24:57 71° SSE 22:28:14 10° ENE night (unlit)
02 Dec - 23:58:29 10° W 00:01:43 50° N 00:04:56 10° ENE night (unlit)
03 Dec - 01:35:20 10° WNW 01:38:37 66° NNE 01:41:53 10° E night (unlit)
03 Dec - 03:12:06 10° W 03:15:08 34° SSW 03:18:09 10° SSE night (unlit)
03 Dec - 21:31:49 10° SW 21:35:00 47° SSE 21:38:10 10° ENE night (unlit)
03 Dec - 23:08:22 10° W 23:11:37 57° N 23:14:52 10° ENE night (unlit)
04 Dec - 00:45:17 10° WNW 00:48:32 54° N 00:51:46 10° E night (unlit)
04 Dec - 02:21:58 10° WNW 02:25:12 53° SSW 02:28:24 10° SE night (unlit)
04 Dec - 04:00:36 10° WSW 04:01:13 10° SW 04:01:49 10° SW night (unlit)
04 Dec - 20:42:06 10° SSW 20:45:03 30° SE 20:48:00 10° E night (unlit)
04 Dec - 22:18:13 10° W 22:21:31 70° NNW 22:24:48 10° ENE night (unlit)
04 Dec - 23:55:11 10° WNW 23:58:24 49° N 00:01:37 10° E night (unlit)
05 Dec - 01:31:53 10° WNW 01:35:11 78° SSW 01:38:28 10° ESE night (unlit)
05 Dec - 03:09:11 10° W 03:11:24 17° SW 03:13:36 10° S night (unlit)
05 Dec - 19:52:39 10° S 19:55:07 20° SE 19:57:36 10° E night (unlit)
05 Dec - 21:28:06 10° WSW 21:31:24 88° SSE 21:34:43 10° ENE night (unlit)
05 Dec - 23:05:00 10° WNW 23:08:13 49° N 23:11:26 10° ENE night (unlit)
06 Dec - 00:41:47 10° WNW 00:45:05 77° NNE 00:48:22 10° ESE night (unlit)
06 Dec - 02:18:40 10° W 02:21:29 26° SW 02:24:17 10° SSE night (unlit)
06 Dec - 19:03:45 10° SSE 19:05:14 13° SE 19:06:42 10° ESE visible
06 Dec - 20:38:03 10° SW 20:41:19 61° SSE 20:44:34 10° ENE night (unlit)
06 Dec - 22:14:47 10° W 22:18:01 52° N 22:21:15 10° ENE night (unlit)
06 Dec - 23:51:39 10° WNW 23:54:55 61° NNE 23:58:11 10° E night (unlit)
07 Dec - 01:28:22 10° WNW 01:31:29 40° SSW 01:34:35 10° SE night (unlit)
07 Dec - 19:48:07 10° SW 19:51:14 40° SSE 19:54:21 10° ENE visible
07 Dec - 21:24:31 10° W 21:27:47 61° NNW 21:31:04 10° ENE night (unlit)
07 Dec - 23:01:27 10° WNW 23:04:41 52° N 23:07:55 10° E night (unlit)
08 Dec - 00:38:08 10° WNW 00:41:24 62° SSW 00:44:38 10° SE night (unlit)
08 Dec - 02:15:58 10° WSW 02:17:29 13° SW 02:18:59 10° SSW night (unlit)
08 Dec - 18:58:22 10° SSW 19:01:10 26° SE 19:03:58 10° E visible
08 Dec - 20:34:15 10° WSW 20:37:33 78° NNW 20:40:52 10° ENE night (unlit)
08 Dec - 22:11:12 10° WNW 22:14:25 49° N 22:17:37 10° ENE night (unlit)
08 Dec - 23:47:55 10° WNW 23:51:13 88° SSW 23:54:31 10° ESE night (unlit)
